Starlink 31243

operational
NORAD ID: 58894 Int'l Des: 2024-020 Owner: SPXS Country: US Constellation: starlink
LEOCIRCULAR

Über Starlink 31243

Beschreibung wird geladen...

Live-Position

3D-Globus wird geladen...

Nächste Überflüge

Höhenverlauf

Altitude vs Time

uPlot chart will show altitude changes over time

Zweizeiliger Elementsatz

1 58894U 24020U 25305.43857501 .00002061 00000-0 81727-4 0 9998
2 58894 53.1598 198.2481 0001241 77.2322 282.8817 15.30191256 98434
Epoch: 1. Nov. 2025 • Age: 17 hours

Aktueller Status

Höhe 475.0 km
Geschwindigkeit 7.63 km/s
Subsatellitenpunkt 12.52°N, 105.19°E
Startdatum 29. Jan. 2024
Alter 1.7 years
Typ internet

Technische Details

Klassifizierung Payload
Masse 730.00 kg
Trockenmasse 700.00 kg
Gesamtmasse 730.00 kg
Länge 0.30 m
Durchmesser 4.10 m
Spannweite 29.00 m
Form Box + pan
Hersteller SPXS
Bus-Typ Starlink V2M
Phasenstatus In Orbit
Besitzer/Staat SPXS/US

Große Konstellationen

Loading constellations...